Flag for Brazil Weather past 2 weeks in Boa Vista, Roraima, Brazil

Now
82 °F

Clear.


Feels Like: 83 °F
Forecast: 73 / 89 °F
Wind: 8 mph from Northeast

Location: Boa Vista Aeropor-To

Current Time: Feb 1, 2015 at 8:24:46 PM

Latest Report: Feb 1, 2015 at 8:00 PM


Visibility: 10 mi

Pressure: 29.86 "Hg

Humidity: 48%

Dew point: 61 °F

Location of Boa VistaLocation

Historic Weather in Boa Vista — Graph

°F

Boa Vista temperature yesterday

Maximum temperature yesterday: 88 °F (at 1:00 PM)
Minimum temperature yesterday: 75 °F (at 1:00 AM)
Average temperature yesterday: 81 °F

Past Weeks' High & Low Weather Summary

 TemperatureHumidityPressure
High90 °F (Jan 18, 3:00 PM)100% (Jan 29, 2:00 AM)29.98 "Hg (Jan 29, 2:00 AM)
Low72 °F (Jan 20, 7:00 AM)36% (Jan 24, 4:00 PM)29.74 "Hg (Jan 30, 5:00 PM)
Average80 °F64%29.87 "Hg
* Reported Jan 17 7:00 PM — Feb 1 7:00 PM, Boa Vista, Weather by CustomWeather, © 2014

Note: Actual official high and low records may vary slightly from our data, if they occured in-between our weather recording intervals... More about our weather records

Advertising

Boa Vista weather history for previous 24 hours

 ConditionsComfort  
Time TempWeatherWind HumidityBarometerVisibility
7:00 PM
Feb 1
84 °FClear.10 mph45%29.83 "Hg10 mi
6:00 PM86 °FSunny.16 mph43%29.80 "Hg10 mi
5:00 PM88 °FPassing clouds.18 mph40%29.80 "HgN/A
4:00 PM90 °FScattered clouds.18 mph41%29.80 "HgN/A
3:00 PM90 °FBroken clouds.16 mph41%29.80 "HgN/A
2:00 PM90 °FPartly sunny.18 mph41%29.83 "HgN/A
1:00 PM88 °FBroken clouds.20 mph43%29.89 "HgN/A
12:00 PM86 °FBroken clouds.18 mph49%29.92 "HgN/A
11:00 AM84 °FBroken clouds.14 mph55%29.95 "HgN/A
10:00 AM81 °FPartly sunny.16 mph62%29.98 "HgN/A
9:00 AM81 °FScattered clouds.15 mph62%29.98 "HgN/A
8:00 AM77 °FScattered clouds.12 mph69%29.95 "HgN/A
7:00 AM73 °FScattered clouds.7 mph83%29.92 "HgN/A
6:00 AM73 °FPassing clouds.8 mph78%29.89 "HgN/A
5:00 AM73 °FPassing clouds.8 mph78%29.89 "HgN/A
4:00 AM75 °FPassing clouds.9 mph78%29.86 "HgN/A
3:00 AM75 °FPassing clouds.8 mph78%29.86 "HgN/A
2:00 AM77 °FPassing clouds.9 mph74%29.89 "HgN/A
1:00 AM77 °FPassing clouds.13 mph74%29.89 "HgN/A
12:00 AM77 °FPassing clouds.15 mph69%29.89 "HgN/A
11:00 PM
Jan 31
79 °FClear.16 mph65%29.89 "Hg10 mi
10:00 PM82 °FClear.8 mph58%29.86 "Hg10 mi
9:00 PM82 °FPassing clouds.8 mph55%29.86 "HgN/A
8:00 PM84 °FPassing clouds.8 mph51%29.83 "HgN/A
Weather by CustomWeather, © 2014

See weather overviewHow to use our weather pages